CZ-6A DEB, 61138

Orbit data source: Space-Track

CZ-6A DEB, 61138 is space debris in LEO originally from a launch on Tue, 06 Aug 2024 UTC launched from the Taiyaun Space Center, China (TSC). Debris objects in space refer to the collection of defunct objects orbiting the Earth. Examples of debris include non-operational satellites, rocket bodies, and fragments generated from explosions, collisions, or faulty payload assembly.

Loading next visibility...
Identifier
61138, 2024-140QG
Orbit
LEO
Country
Flag of CNCN / PRC
Related business
Manufacturer
SAST
Mission
Spacecraft
Bus & Motor
Unknown
Mass
Unknown
Launch date (UTC)
2024-08-06 (2 years ago)
Launch vehicle
Unknown
Launch site
Taiyaun Space Center, China (TSC)
Object type
Payload
Rocket body
Debris
Shape & HBR
Unknown shape, 0.1 m
Radar Cross Section
Medium (>0.1 m² and <1 m²)

Expand to show TLE details & history
Last TLE update: 14 hours ago

TLE from 14 hours ago
0 CZ-6A DEB
1 61138U 24140QG  26171.25862221  .00002995  00000-0  15661-2 0  9991
2 61138  88.9750 273.9116 0113708 243.1920 115.7600 14.10897113 93836
Epoch: 2026-06-20T06:12Z
TLE epoch observation values (Epoch: 2026-06-20T06:12:24.958Z)
Latitude
-0.00005°
Longitude
-87.66821°
Altitude
895.855 km
Speed
7.385 km/s
True Right ascension
18h 15m 38s
True Declination
0° 00' 00"
Sunlit
Object was in full shadow at epoch
Visualization orbit readout
Latitude
Unknown
Longitude
Unknown
Altitude
Unknown
Speed
Unknown
Apparent Right ascension
Unknown
Apparent Declination
Unknown
Sunlit
N/A
Visualization observer readout
Local Sidereal Time
07:18:16
Azimuth
Unknown
Elevation
Unknown
Doppler factor
Unknown
Orbital elements
Apogee altitude
935.494 km
Perigee altitude
771.04 km
Semi-major axis
7,231.404 km
Eccentricity
0.01137
Inclination
88.975°
RAAN
273.9116°
Arg. of periapsis
243.192°
True anomaly
116.92622°
Mean anomaly
115.76°
Eccentric anomaly
116.34384°
Mean motion
3.52947 °/min
Orbital period
102 mins
BSTAR
0.0015661
Loading maneuver chart data...
Computing Atmospheric mass density...
Loading historical data...
Loading historical data...
Loading historical data...
Loading historical data...
Loading historical data...
Loading historical data...
Loading historical data...

Documentation

Showing up to 5 results
|